Torna al catalogo

HULIANWANG DIGUI-151

AttivoComunicazioniLEO
NORAD 67527·PAYLOAD·🇨🇳 China

Lanciato Jan 19, 2026 da Wenchang Space Launch Site

Loading…

Prossimi Passaggi (prossime 24 ore)

TLE

AggiornatoSource: Space-Track

Epoca: Sep 14, 2026, 10:31 UTC

1 67527U 26013F   26257.43860968 -.00000104  00000-0  44199-4 0  9992
2 67527  50.0102  35.5426 0000816  87.0919 273.0046 13.29329973 31926

Traccia HULIANWANG DIGUI-151 in tempo reale con AllMySat

Download on the App Store